When you browse on this site, cookies collect data to enhance your experience and personalize the content and advertising you see.
Visit our Privacy Policy to learn more. By continuing to use the site, you agree to this use of cookies and data.
  • In Österreich
  • Länderverzeichnis
  • Für 7 Tage
  • Wassertemperatur
  • Satellitenkarten
  • Wetterkarte
  • News
  • Widgets
  • user-avatar
    Anmelden

    Stündliche Wetter Rohachynka

    Heute, 21 Februar, Donnerstag

    Zeit Temperatur Niederschläge Wind Luftdruck Luftfeuchtigkeit
    00:00 +4°C° 0 mm 3 m/S 759 mmHg 89%
    01:00 +4°C° 0 mm 3 m/S 759 mmHg 90%
    02:00 +3°C° 0 mm 3 m/S 759 mmHg 89%
    03:00 +3°C° 0 mm 3 m/S 759 mmHg 88%
    04:00 +2°C° 0 mm 3 m/S 759 mmHg 87%
    05:00 +1°C° 0 mm 4 m/S 759 mmHg 86%
    06:00 +1°C° 0 mm 4 m/S 759 mmHg 84%
    07:00 +1°C° 0 mm 5 m/S 759 mmHg 81%
    08:00 +2°C° 0 mm 6 m/S 759 mmHg 77%
    09:00 +3°C° 0 mm 6 m/S 759 mmHg 69%
    10:00 +5°C° 0 mm 7 m/S 759 mmHg 61%
    11:00 +6°C° 0 mm 7 m/S 759 mmHg 52%
    12:00 +6°C° 0 mm 8 m/S 759 mmHg 49%
    13:00 +7°C° 0 mm 8 m/S 759 mmHg 46%
    14:00 +7°C° 0 mm 8 m/S 758 mmHg 41%
    15:00 +7°C° 0 mm 8 m/S 759 mmHg 42%
    16:00 +6°C° 0 mm 7 m/S 759 mmHg 43%
    17:00 +5°C° 0 mm 6 m/S 759 mmHg 43%
    18:00 +5°C° 0 mm 5 m/S 759 mmHg 47%
    19:00 +5°C° 0 mm 4 m/S 759 mmHg 51%
    20:00 +4°C° 0 mm 4 m/S 760 mmHg 55%
    21:00 +4°C° 0 mm 3 m/S 760 mmHg 57%
    22:00 +4°C° 0 mm 3 m/S 760 mmHg 58%
    23:00 +4°C° 0 mm 3 m/S 760 mmHg 60%

    Morgen, 22 Februar, Freitag

    Zeit Temperatur Niederschläge Wind Luftdruck Luftfeuchtigkeit
    00:00 +3°C° 0 mm 3 m/S 760 mmHg 64%
    01:00 +2°C° 0 mm 3 m/S 760 mmHg 68%
    02:00 +1°C° 0 mm 3 m/S 760 mmHg 72%
    03:00 +2°C° 0 mm 2 m/S 760 mmHg 73%
    04:00 +2°C° 0 mm 2 m/S 760 mmHg 74%
    05:00 +1°C° 0 mm 2 m/S 760 mmHg 75%
    06:00 +1°C° 0.2 mm 2 m/S 760 mmHg 76%
    07:00 0°C° 0.2 mm 3 m/S 760 mmHg 76%
    08:00 -1°C° 0.2 mm 3 m/S 760 mmHg 77%
    09:00 -2°C° 0.8 mm 4 m/S 760 mmHg 81%
    10:00 -3°C° 0.8 mm 4 m/S 759 mmHg 85%
    11:00 -4°C° 0.8 mm 5 m/S 759 mmHg 89%
    12:00 -5°C° 0.9 mm 5 m/S 759 mmHg 90%
    13:00 -5°C° 0.9 mm 6 m/S 759 mmHg 90%
    14:00 -6°C° 0.9 mm 6 m/S 759 mmHg 90%
    15:00 -7°C° 0.9 mm 7 m/S 759 mmHg 91%
    16:00 -8°C° 0.9 mm 7 m/S 759 mmHg 92%
    17:00 -8°C° 0.9 mm 7 m/S 760 mmHg 92%
    18:00 -8°C° 0.6 mm 7 m/S 760 mmHg 90%
    19:00 -10°C° 0.6 mm 8 m/S 761 mmHg 89%
    20:00 -10°C° 0.6 mm 8 m/S 761 mmHg 87%
    21:00 -9°C° 0.2 mm 7 m/S 761 mmHg 85%
    22:00 -11°C° 0.2 mm 7 m/S 762 mmHg 84%
    23:00 -11°C° 0.2 mm 7 m/S 762 mmHg 82%

    übermorgen, 23 Februar, Samstag

    Zeit Temperatur Niederschläge Wind Luftdruck Luftfeuchtigkeit
    00:00 -11°C° 0.1 mm 7 m/S 762 mmHg 81%
    01:00 -10°C° 0.1 mm 6 m/S 763 mmHg 81%
    02:00 -10°C° 0.1 mm 6 m/S 763 mmHg 80%
    03:00 -10°C° 0 mm 6 m/S 763 mmHg 79%
    04:00 -10°C° 0 mm 6 m/S 764 mmHg 79%
    05:00 -10°C° 0 mm 6 m/S 764 mmHg 78%
    06:00 -10°C° 0 mm 6 m/S 765 mmHg 78%
    07:00 -11°C° 0 mm 7 m/S 765 mmHg 78%
    08:00 -11°C° 0 mm 7 m/S 766 mmHg 77%
    09:00 -9°C° 0 mm 7 m/S 766 mmHg 76%
    10:00 -9°C° 0 mm 7 m/S 766 mmHg 75%
    11:00 -8°C° 0 mm 7 m/S 767 mmHg 74%
    12:00 -8°C° 0 mm 7 m/S 767 mmHg 73%
    13:00 -6°C° 0 mm 6 m/S 767 mmHg 72%
    14:00 -6°C° 0 mm 6 m/S 767 mmHg 71%
    15:00 -6°C° 0 mm 5 m/S 768 mmHg 73%
    16:00 -7°C° 0 mm 5 m/S 768 mmHg 74%
    17:00 -7°C° 0 mm 4 m/S 768 mmHg 76%
    18:00 -8°C° 0 mm 5 m/S 769 mmHg 77%
    19:00 -8°C° 0 mm 5 m/S 769 mmHg 78%
    20:00 -10°C° 0 mm 5 m/S 770 mmHg 79%
    21:00 -10°C° 0 mm 5 m/S 770 mmHg 81%
    22:00 -10°C° 0 mm 5 m/S 770 mmHg 83%
    23:00 -10°C° 0 mm 5 m/S 770 mmHg 85%

    24 Februar, Sonntag

    Zeit Temperatur Niederschläge Wind Luftdruck Luftfeuchtigkeit
    00:00 -11°C° 0 mm 5 m/S 770 mmHg 85%
    01:00 -10°C° 0 mm 4 m/S 771 mmHg 86%
    02:00 -10°C° 0 mm 4 m/S 771 mmHg 86%
    03:00 -10°C° 0 mm 4 m/S 771 mmHg 86%
    04:00 -11°C° 0 mm 4 m/S 771 mmHg 87%
    05:00 -11°C° 0 mm 4 m/S 771 mmHg 87%
    06:00 -11°C° 0 mm 4 m/S 771 mmHg 86%
    07:00 -10°C° 0 mm 4 m/S 772 mmHg 85%
    08:00 -10°C° 0 mm 4 m/S 772 mmHg 85%
    09:00 -9°C° 0 mm 4 m/S 772 mmHg 83%
    10:00 -8°C° 0 mm 4 m/S 772 mmHg 81%
    11:00 -7°C° 0 mm 4 m/S 772 mmHg 79%
    12:00 -5°C° 0 mm 4 m/S 772 mmHg 78%
    13:00 -4°C° 0 mm 4 m/S 772 mmHg 76%
    14:00 -4°C° 0 mm 3 m/S 772 mmHg 75%
    15:00 -4°C° 0 mm 3 m/S 772 mmHg 75%
    16:00 -4°C° 0 mm 2 m/S 772 mmHg 75%
    17:00 -4°C° 0 mm 2 m/S 772 mmHg 76%
    18:00 -5°C° 0 mm 2 m/S 772 mmHg 74%
    19:00 -5°C° 0 mm 2 m/S 773 mmHg 73%
    20:00 -6°C° 0 mm 2 m/S 773 mmHg 71%
    21:00 -6°C° 0 mm 2 m/S 773 mmHg 70%
    22:00 -6°C° 0 mm 2 m/S 773 mmHg 68%
    23:00 -6°C° 0 mm 2 m/S 773 mmHg 67%

    25 Februar, Montag

    Zeit Temperatur Niederschläge Wind Luftdruck Luftfeuchtigkeit
    00:00 -7°C° 0 mm 2 m/S 773 mmHg 68%
    01:00 -7°C° 0 mm 2 m/S 773 mmHg 70%
    02:00 -7°C° 0 mm 2 m/S 773 mmHg 71%
    03:00 -7°C° 0 mm 2 m/S 773 mmHg 73%
    04:00 -8°C° 0 mm 3 m/S 772 mmHg 75%
    05:00 -8°C° 0 mm 3 m/S 772 mmHg 78%
    06:00 -7°C° 0 mm 3 m/S 772 mmHg 78%
    07:00 -7°C° 0 mm 3 m/S 772 mmHg 78%
    08:00 -6°C° 0 mm 3 m/S 772 mmHg 79%
    09:00 -5°C° 0 mm 3 m/S 771 mmHg 80%
    10:00 -2°C° 0 mm 3 m/S 771 mmHg 81%
    11:00 -1°C° 0 mm 3 m/S 771 mmHg 82%
    12:00 -1°C° 0 mm 4 m/S 770 mmHg 82%
    13:00 -1°C° 0 mm 4 m/S 769 mmHg 81%
    14:00 0°C° 0 mm 4 m/S 768 mmHg 81%
    15:00 -1°C° 0 mm 4 m/S 768 mmHg 83%
    16:00 -1°C° 0 mm 4 m/S 767 mmHg 85%
    17:00 -1°C° 0 mm 3 m/S 767 mmHg 87%
    18:00 -1°C° 0 mm 3 m/S 767 mmHg 89%
    19:00 -2°C° 0 mm 3 m/S 766 mmHg 90%
    20:00 -4°C° 0 mm 3 m/S 766 mmHg 91%
    21:00 -4°C° 0 mm 3 m/S 766 mmHg 91%
    22:00 -4°C° 0 mm 3 m/S 765 mmHg 90%
    23:00 -4°C° 0 mm 3 m/S 765 mmHg 90%

    26 Februar, Dienstag

    Zeit Temperatur Niederschläge Wind Luftdruck Luftfeuchtigkeit
    00:00 -2°C° 0 mm 3 m/S 764 mmHg 90%
    01:00 -2°C° 0 mm 3 m/S 764 mmHg 89%
    02:00 -1°C° 0 mm 3 m/S 763 mmHg 89%
    03:00 -2°C° 0 mm 3 m/S 763 mmHg 90%
    04:00 -2°C° 0 mm 3 m/S 762 mmHg 92%
    05:00 -2°C° 0 mm 3 m/S 761 mmHg 94%
    06:00 -3°C° 0 mm 4 m/S 761 mmHg 93%
    07:00 -3°C° 0 mm 4 m/S 761 mmHg 92%
    08:00 -2°C° 0 mm 5 m/S 760 mmHg 91%
    09:00 -1°C° 0 mm 5 m/S 760 mmHg 88%
    10:00 -1°C° 0 mm 5 m/S 759 mmHg 86%
    11:00 0°C° 0 mm 5 m/S 759 mmHg 83%
    12:00 +1°C° 0 mm 5 m/S 758 mmHg 80%
    13:00 +2°C° 0 mm 5 m/S 757 mmHg 77%
    14:00 +3°C° 0 mm 5 m/S 757 mmHg 74%
    15:00 +3°C° 0 mm 4 m/S 756 mmHg 79%
    16:00 +1°C° 0 mm 4 m/S 756 mmHg 83%
    17:00 +2°C° 0 mm 3 m/S 755 mmHg 87%
    18:00 +1°C° 0 mm 3 m/S 755 mmHg 88%
    19:00 +1°C° 0 mm 3 m/S 755 mmHg 90%
    20:00 0°C° 0 mm 3 m/S 754 mmHg 91%
    21:00 0°C° 0 mm 3 m/S 754 mmHg 91%
    22:00 0°C° 0 mm 3 m/S 753 mmHg 92%
    23:00 0°C° 0 mm 3 m/S 752 mmHg 92%
    Mehr zeigen